LES 5

operational
NORAD ID: 2866 Int'l Des: 1967-066 Owner: SAMSO Country: US
MEOCIRCULAR

关于 LES 5

正在加载描述...

实时位置

正在加载3D地球...

即将过境

高度历史

Altitude vs Time

uPlot chart will show altitude changes over time

两行轨道根数

1 02866U 67066E 26061.62530948 -.00000125 00000-0 00000-0 0 9998
2 02866 2.3766 99.6924 0056275 208.1236 171.5435 1.09426114129875
Epoch: Mar 2, 2026 • Age: 28 hours

当前状态

高度 33204.3 km
速度 3.18 km/s
星下点 -2.01°S, 112.34°E
类型 other

大型星座

Loading constellations...